{"data":{"norad_id":59749,"epoch":"2026-09-21T02:34:58.512288Z","epoch_age_seconds":118691,"freshness":"FRESH","line1":"1 59749U 24090V   26264.10762167  .00001527  00000+0  65011-4 0  9990","line2":"2 59749  43.0045 160.1452 0000828 268.5175  91.5581 15.27575779133318","mean_motion":15.27575779,"eccentricity":8.28e-5,"inclination_deg":43.0045,"raan_deg":160.1452,"arg_perigee_deg":268.5175,"mean_anomaly_deg":91.5581,"bstar":6.5011e-5,"rev_number":13331,"period_min":94.267009191693,"perigee_km":482.49362800597,"apogee_km":483.62984251653,"semimajor_km":6861.1987352613,"source":"CELESTRAK","updated_at":"2026-09-22T09:00:49.065873Z"}}